星链-31414 (STARLINK-31414 )

导读

STARLINK-31414是美国太空探索技术公司SpaceX于2024年4月5日发射的星链星座卫星,属于Starlink第二代组网卫星,旨在完善全球低轨卫星互联网覆盖服务。 该卫星运行在近地轨道,为全球用户提供高速宽带互联网接入服务,可覆盖偏远地区、支撑移动网络接入,服务航空、航海及地面通信场景,推进SpaceX星链全球卫星通信网络的部署进程,强化星座的通信容量与覆盖密度。

Basic Information
目录编号:
59418
目录名称:
STARLINK-31414
国际标识:
2024-064W
轨道中心:
EARTH
卫星名称:
星链-31414
卫星全名:
星链-31414 (STARLINK-31414 )
卫星状态:
在轨 (已飞行882 天)
发射日期:
2024-04-05 UTC
国别 :
美国 (US)
星等 :
--
Orbit Information
数据来源 国际轨道数据
星历时间: 2026-09-04T09:19:14+0800
15小时前
查看轨道信息
半长轴: 6861.194km
偏心率: 0.0000785
轨道倾角: 43.003°
近地点辐角 269.773°
升交点赤经 128.929°
平近点角 90.303°
近地点: 482.518km
远地点: 483.596km
周期: 94.267分钟
每日圈数: 15.275775
Detailed Information
固有亮度:
5
最大亮度:
0.3
卫星平台:
Starlink v2.0 mini
覆盖范围:
全球
运营商:
太空探索技术公司
运营商所在国:
美国
制造商(研发单位):
太空探索技术公司
制造商所在国:
美国
使用方式:
暂无
Satellite Introduction
星链(Starlink)计划是由太空探索技术公司(SpaceX)提出的一个巨型低轨卫星互联网星座项目,计划在2019年至2024年间在太空搭建由约1.2万颗卫星组成的“星链”网络,其中1584颗将部署在地球上空550千米处的近地轨道,并从2020年开始工作。该卫星仍在工作。
2D Orbit Map
3D Orbit Map
Orbit Altitude Analysis Chart
Orbit Inclination Analysis Chart
Orbit Comprehensive Analysis Chart
View Comprehensive Chart
Conjunction Data List
Event ID Objects TCA Miss Dist (km) Collision Risk Probability Collision Risk Index (CRI) Action
CDM_260906-212205-941806-275221
2026-09-06T
21:22:00+0000
0.406 km
远距离
2.25241E-4 高风险 0.82
CDM_260906-031405-941806-681621
2026-09-06T
03:14:25+0000
0.956 km
远距离
1.484058E-5 中风险 0.58
CDM_260906-115205-941806-681621
2026-09-06T
11:52:16+0000
1.175 km
极远距离
7.291295E-6 低风险 0.52
CDM_260906-170805-941806-685121
2026-09-06T
17:08:39+0000
1.361 km
极远距离
5.103931E-6 低风险 0.49
CDM_260906-101805-941806-681621
2026-09-06T
10:18:06+0000
1.397 km
极远距离
4.088857E-6 低风险 0.47
CDM_260906-044805-941806-681621
2026-09-06T
04:48:34+0000
1.505 km
极远距离
3.226396E-6 低风险 0.45
CDM_260906-144705-511005-941821
2026-09-06T
14:47:49+0000
2.181 km
极远距离
2.177881E-6 低风险 0.42
CDM_260905-195105-941806-399321
OBJECT M (63993)
2026-09-05T
19:51:18+0000
2.676 km
极远距离
1.520753E-6 低风险 0.39
CDM_260906-184205-941806-685121
2026-09-06T
18:42:48+0000
2.116 km
极远距离
1.457752E-6 低风险 0.38
CDM_260906-194705-941806-275221
2026-09-06T
19:47:51+0000
2.307 km
极远距离
1.406448E-6 低风险 0.38